Simultaneous Nadir Overpasses (SNOs) Predictions

Prediction of SNOs between AQUA and METOP-C Satellite Orbit:

Table of predicted SNOs for the next 14.0 days since TLE Epoch: 10/16/2021
Index Date (AQUA) Time (AQUA) Lat,Lon (AQUA) SZA (AQUA ) Date (METOP-C) Time (METOP-C) Lat,Lon (METOP-C) SZA (METOP-C ) Distance(km) Time Diff (sec)
1 10/17/2021 14:04:16 -73.72, 143.36 96.89 10/17/2021 14:03:27 -73.70, 143.33 96.91 2.60 49
2 10/17/2021 14:53:45 73.81, -49.18 83.21 10/17/2021 14:54:04 73.79, -49.14 83.19 2.86 19
3 10/20/2021 09:38:29 -73.72,-150.19 95.88 10/20/2021 09:37:50 -73.71,-150.26 95.89 2.91 39
4 10/20/2021 10:27:58 73.81, 17.26 84.22 10/20/2021 10:28:27 73.78, 17.27 84.20 2.57 29
5 10/23/2021 05:12:43 -73.73, -83.77 94.87 10/23/2021 05:12:13 -73.75, -83.74 94.85 2.46 30
6 10/23/2021 06:02:12 73.82, 83.68 85.23 10/23/2021 06:02:50 73.83, 83.79 85.24 3.54 38
7 10/26/2021 00:46:57 -73.76, -17.37 93.88 10/26/2021 00:46:37 -73.75, -17.34 93.88 1.39 20
8 10/26/2021 01:36:25 73.79, 150.19 86.18 10/26/2021 01:37:14 73.83, 150.18 86.21 3.60 49
9 10/28/2021 19:31:36 73.31,-117.62 86.61 10/28/2021 19:30:27 73.29,-119.31 86.61 54.24 69
10 10/28/2021 20:21:10 -73.74, 49.11 92.94 10/28/2021 20:21:01 -73.74, 49.05 92.94 1.75 9
11 10/28/2021 21:10:39 73.83,-143.45 87.16 10/28/2021 21:11:38 73.82,-143.43 87.15 1.61 59



Historial Predications of SNOs between AQUA and METOP-C
